ヒル彗星

P/2010 U2 ( Hill )

English version
Home page
Updated on September 3, 2011

---------------------------------------------------------------------

・ プロフィール

発見日 2010年10月17日
発見光度 18.2等
発見者 R. E. Hill (Catalina)

・ 写真集

・ 軌道要素

Epoch 2010 Nov. 20.0 TT = JDT 2455520.5
T 2010 Nov.  9.30694 TT                                 MPC
q   2.5527544            (2000.0)            P               Q
n   0.11149974     Peri.   44.24027     +0.74873422     -0.66271341
a   4.2751708      Node   357.14981     +0.49864672     +0.57744044
e   0.4028883      Incl.   16.86087     +0.43674767     +0.47683696
P   8.84
From 250 observations 2010 Oct. 1-2011 Mar. 7, mean residual 0".5.

・ 光度変化

        m1 = 12.7 + 5 logΔ + 10.0 log r

---------------------------------------------------------------------

軌道要素はM.P.E.C. 2011-F02に掲載されたものです。
光度グラフはComet for Windowsで作成したものです。

---------------------------------------------------------------------

Copyright(C) Seiichi Yoshida (comet@aerith.net). All rights reserved.